Simultaneous Nadir Overpasses (SNOs) Predictions

Prediction of SNOs near US between AQUA and NPP Satellite Orbit:

Table of predicted SNOs near US for the next 10.0 days since TLE Epoch: 7/2/2022
Index Date (AQUA) Time (AQUA) AQUA Lat,Lon Date (NPP) Time (NPP) NPP Lat,Lon Distance(km) Time Diff (sec)
1 07/03/2022 18:19:46 50.00, -80.09 07/03/2022 18:16:53 49.50, -83.19 229.70 173
2 07/06/2022 07:45:57 27.20, -87.48 07/06/2022 07:39:36 27.52, -89.00 154.04 381
3 07/06/2022 09:22:16 36.41,-109.71 07/06/2022 09:18:28 36.74,-111.73 184.73 228
